Weather History for Novato, CA

Change the Weather History Date:

Saturday, August 3, 2013

  Actual Average (KAPC) Record (KAPC)
Temperature  
Mean Temperature 63 °F 65 °F  
Max Temperature 78 °F 78 °F 101 °F (1998)
Min Temperature 48 °F 52 °F 50 °F (2007)
Degree Days  
Heating Degree Days 2    
Month to date heating degree days  
Since 1 June heating degree days  
Since 1 July heating degree days  
Cooling Degree Days 0    
Month to date cooling degree days  
Year to date cooling degree days  
Since 1 June cooling degree days  
Growing Degree Days 13 (Base 50)    
Moisture  
Dew Point 53 °F    
Average Humidity 80    
Maximum Humidity 100    
Minimum Humidity 42    
Precipitation  
Precipitation 0.00 in - 0.00 in (2014)
Month to date precipitation  
Year to date precipitation  
Since 1 July precipitation  
Sea Level Pressure  
Sea Level Pressure 29.95 in    
Wind  
Wind Speed 4 mph (NE)    
Max Wind Speed 16 mph    
Max Gust Speed 21 mph    
Visibility 10 miles    
Events      
T = Trace of Precipitation, MM = Missing Value Source: NWS Daily Summary

Daily Weather History Graph

Daily Weather History Graph

Search for Another Location

Airport:

Trip Planner

Search our weather history database for the weather conditions in past years. The results will help you decide how hot, cold, wet, or windy it might be!

Date:

Astronomy

Aug. 03, 2013 Rise Set
Actual Time 6:14 AM PDT 8:17 PM PDT
Civil Twilight 5:45 AM PDT 8:46 PM PDT
Nautical Twilight 5:10 AM PDT 9:21 PM PDT
Astronomical Twilight 4:31 AM PDT 9:59 PM PDT
Moon 3:29 AM PDT (8/3) 6:03 PM PDT (8/3)
Length of Visible Light 15h 00m
Length of Day
14h 02m
Waning Crescent, 9% of the Moon is Illuminated
Aug 3
Waning Crescent
Aug 6
New
Aug 14
First Quarter
Aug 20
Full
Aug 28
Last Quarter

Hourly Weather History & Observations

Time (PDT) Temp. Dew Point Humidity Pressure Visibility Wind Dir Wind Speed Gust Speed Precip Events Conditions
12:15 AM 55.4 °F 51.8 °F 88% 29.94 in 10.0 mi South 5.8 mph - N/A   Clear
12:35 AM 55.4 °F 51.8 °F 88% 29.94 in 10.0 mi South 3.5 mph - N/A   Clear
12:55 AM 55.4 °F 53.6 °F 94% 29.93 in 10.0 mi Calm Calm - N/A   Clear
1:15 AM 55.4 °F 53.6 °F 94% 29.94 in 10.0 mi Calm Calm - N/A   Clear
1:35 AM 53.6 °F 53.6 °F 100% 29.94 in 10.0 mi Calm Calm - N/A   Clear
1:55 AM 53.6 °F 50.0 °F 88% 29.93 in 10.0 mi Calm Calm - N/A   Clear
2:15 AM 51.8 °F 51.8 °F 100% 29.93 in 10.0 mi SSW 3.5 mph - N/A   Clear
2:35 AM 50.0 °F 50.0 °F 100% 29.93 in 10.0 mi Calm Calm - N/A   Clear
2:55 AM 48.2 °F 48.2 °F 100% 29.94 in 10.0 mi Calm Calm - N/A   Clear
3:15 AM 50.0 °F 50.0 °F 100% 29.93 in 10.0 mi Calm Calm - N/A   Clear
3:35 AM 48.2 °F 48.2 °F 100% 29.94 in 10.0 mi Calm Calm - N/A   Clear
3:55 AM 50.0 °F 50.0 °F 100% 29.94 in 10.0 mi Calm Calm - N/A   Clear
4:15 AM 50.0 °F 50.0 °F 100% 29.94 in 10.0 mi Calm Calm - N/A   Partly Cloudy
4:35 AM 50.0 °F 50.0 °F 100% 29.94 in 10.0 mi Calm Calm - N/A   Mostly Cloudy
4:55 AM 51.8 °F 51.8 °F 100% 29.94 in 10.0 mi Calm Calm - N/A   Overcast
5:15 AM 51.8 °F 51.8 °F 100% 29.94 in 10.0 mi South 4.6 mph - N/A   Overcast
5:35 AM 53.6 °F 53.6 °F 100% 29.94 in 10.0 mi South 3.5 mph - N/A   Overcast
5:55 AM 53.6 °F 53.6 °F 100% 29.95 in 10.0 mi South 3.5 mph - N/A   Overcast
6:15 AM 53.6 °F 53.6 °F 100% 29.96 in 10.0 mi South 4.6 mph - N/A   Overcast
6:35 AM 53.6 °F 53.6 °F 100% 29.96 in 10.0 mi SSW 4.6 mph - N/A   Overcast
6:55 AM 53.6 °F 53.6 °F 100% 29.96 in 10.0 mi SSW 3.5 mph - N/A   Overcast
7:15 AM 53.6 °F 53.6 °F 100% 29.97 in 8.0 mi SSW 4.6 mph - N/A   Overcast
7:35 AM 53.6 °F 53.6 °F 100% 29.97 in 8.0 mi Calm Calm - N/A   Unknown
7:55 AM 53.6 °F 53.6 °F 100% 29.98 in 9.0 mi Calm Calm - N/A   Unknown
8:15 AM 53.6 °F 53.6 °F 100% 29.98 in 10.0 mi Calm Calm - N/A   Unknown
8:35 AM 53.6 °F 53.6 °F 100% 29.98 in 10.0 mi WSW 3.5 mph - N/A   Unknown
8:55 AM 55.4 °F 53.6 °F 94% 29.99 in 10.0 mi South 3.5 mph - N/A   Unknown
9:15 AM 55.4 °F 53.6 °F 94% 29.99 in 10.0 mi Calm Calm - N/A   Unknown
9:35 AM 55.4 °F 53.6 °F 94% 29.99 in 10.0 mi Calm Calm - N/A   Unknown
9:55 AM 57.2 °F 53.6 °F 88% 29.99 in 10.0 mi Calm Calm - N/A   Unknown
10:15 AM 57.2 °F 53.6 °F 88% 29.99 in 10.0 mi NNE 4.6 mph - N/A   Unknown
10:35 AM 59.0 °F 53.6 °F 82% 29.99 in 10.0 mi North 4.6 mph - N/A   Unknown
10:55 AM 62.6 °F 53.6 °F 72% 29.98 in 10.0 mi Calm Calm - N/A   Unknown
11:15 AM 64.4 °F 53.6 °F 68% 29.98 in 10.0 mi ENE 4.6 mph - N/A   Unknown
11:35 AM 66.2 °F 53.6 °F 64% 29.97 in 9.0 mi East 3.5 mph - N/A   Unknown
11:55 AM 66.2 °F 55.4 °F 68% 29.97 in 10.0 mi SE 6.9 mph - N/A   Unknown
12:15 PM 68.0 °F 55.4 °F 64% 29.97 in 10.0 mi ESE 8.1 mph - N/A   Unknown
12:35 PM 68.0 °F 55.4 °F 64% 29.96 in 10.0 mi SE 6.9 mph - N/A   Unknown
12:55 PM 69.8 °F 55.4 °F 60% 29.96 in 10.0 mi SE 6.9 mph - N/A   Unknown
1:15 PM 71.6 °F 55.4 °F 57% 29.96 in - SE 6.9 mph - N/A   Unknown
1:35 PM 71.6 °F 55.4 °F 57% 29.96 in - ESE 9.2 mph - N/A   Unknown
1:55 PM 71.6 °F 55.4 °F 57% 29.95 in - ESE 8.1 mph - N/A   Unknown
2:15 PM 73.4 °F 55.4 °F 53% 29.94 in - SE 5.8 mph - N/A   Unknown
2:35 PM 75.2 °F 55.4 °F 50% 29.94 in - SE 4.6 mph - N/A   Unknown
2:55 PM 77.0 °F 55.4 °F 47% 29.94 in - SE 4.6 mph - N/A   Unknown
3:15 PM 77.0 °F 55.4 °F 47% 29.93 in - NNE 4.6 mph - N/A   Unknown
3:35 PM 78.8 °F 55.4 °F 44% 29.92 in - NNW 11.5 mph 20.7 mph N/A   Unknown
3:55 PM 78.8 °F 53.6 °F 42% 29.92 in - North 16.1 mph - N/A   Unknown
4:15 PM 78.8 °F 53.6 °F 42% 29.92 in - North 12.7 mph - N/A   Unknown
4:35 PM 78.8 °F 53.6 °F 42% 29.92 in - NNW 13.8 mph - N/A   Unknown
4:55 PM 78.8 °F 53.6 °F 42% 29.91 in - NNW 16.1 mph 19.6 mph N/A   Unknown
5:15 PM 77.0 °F 53.6 °F 44% 29.91 in - NNW 13.8 mph - N/A   Unknown
5:35 PM 77.0 °F 53.6 °F 44% 29.91 in - North 15.0 mph - N/A   Unknown
5:55 PM 77.0 °F 53.6 °F 44% 29.91 in - North 12.7 mph - N/A   Unknown
6:15 PM 75.2 °F 53.6 °F 47% 29.91 in - North 13.8 mph - N/A   Unknown
6:35 PM 73.4 °F 53.6 °F 50% 29.91 in - North 13.8 mph - N/A   Unknown
6:55 PM 71.6 °F 53.6 °F 53% 29.90 in - North 12.7 mph - N/A   Clear
7:15 PM 68.0 °F 53.6 °F 60% 29.91 in 10.0 mi North 12.7 mph - N/A   Clear
7:35 PM 68.0 °F 53.6 °F 60% 29.91 in 10.0 mi North 13.8 mph - N/A   Clear
7:55 PM 62.6 °F 53.6 °F 72% 29.91 in 10.0 mi North 13.8 mph - N/A   Clear
8:15 PM 57.2 °F 53.6 °F 88% 29.92 in 10.0 mi North 12.7 mph 17.3 mph N/A   Clear
8:35 PM 55.4 °F 51.8 °F 88% 29.93 in 10.0 mi North 12.7 mph - N/A   Clear
8:55 PM 53.6 °F 51.8 °F 94% 29.94 in 10.0 mi North 11.5 mph - N/A   Clear
9:15 PM 53.6 °F 51.8 °F 94% 29.94 in 10.0 mi North 9.2 mph - N/A   Clear
9:35 PM 53.6 °F 53.6 °F 100% 29.96 in 10.0 mi North 10.4 mph - N/A   Clear
9:55 PM 53.6 °F 53.6 °F 100% 29.96 in 10.0 mi North 10.4 mph - N/A   Clear
10:15 PM 53.6 °F 53.6 °F 100% 29.97 in 10.0 mi North 8.1 mph - N/A   Clear
10:35 PM 51.8 °F 51.8 °F 100% 29.97 in 10.0 mi NNW 5.8 mph - N/A   Clear
10:55 PM 50.0 °F 50.0 °F 100% 29.97 in 10.0 mi NNW 3.5 mph - N/A   Clear
11:15 PM 51.8 °F 51.8 °F 100% 29.97 in 10.0 mi Calm Calm - N/A   Clear
11:35 PM 51.8 °F 51.8 °F 100% 29.97 in 10.0 mi Calm Calm - N/A   Clear
11:55 PM 51.8 °F 51.8 °F 100% 29.98 in 10.0 mi Calm Calm - N/A   Clear